Boscombe Down, United Kingdom

1:08 PM BST on June 22, 2017 (GMT +0100)
Boscombe Down

Weather History for EGDM - December, 2012

Change the Weather History Date:

Saturday, December 1, 2012

  Actual Average Record
Temperature  
Mean Temperature 34 °F -  
Max Temperature 44 °F 42 °F 56 °F (2015)
Min Temperature 24 °F 35 °F 22 °F (2016)
Degree Days  
Heating Degree Days 31    
Moisture  
Dew Point 31 °F    
Average Humidity 90    
Maximum Humidity 100    
Minimum Humidity 68    
Precipitation  
Precipitation 0.01 in - - ()
Sea Level Pressure  
Sea Level Pressure 29.98 in    
Wind  
Wind Speed 5 mph ()    
Max Wind Speed 14 mph    
Max Gust Speed -    
Visibility 4.4 miles    
Events Fog , Rain    
Averages and records for this station are not official NWS values.
T = Trace of Precipitation, MM = Missing Value Source: Averaged Metar Reports

Daily Weather History Graph

Daily Weather History Graph

Search for Another Location

Airport or City:

Trip Planner

Search our weather history database for the weather conditions in past years. The results will help you decide how hot, cold, wet, or windy it might be!

Date:

Astronomy

Dec. 01, 2012 Rise Set
Actual Time 7:49 AM GMT 4:02 PM GMT
Civil Twilight 7:10 AM GMT 4:41 PM GMT
Nautical Twilight 6:28 AM GMT 5:23 PM GMT
Astronomical Twilight 5:48 AM GMT 6:03 PM GMT
Moon 6:43 PM GMT (12/1) 9:49 AM GMT (12/1)
Length of Visible Light 9h 30m
Length of Day
8h 13m
Waning Gibbous, 93% of the Moon is Illuminated
Dec 1
Waning Gibbous
Dec 6
Last Quarter
Dec 13
New
Dec 20
First Quarter
Dec 28
Full

Hourly Weather History & Observations

Time (GMT) Temp. Windchill Dew Point Humidity Pressure Visibility Wind Dir Wind Speed Gust Speed Precip Events Conditions
12:50 AM 30.2 °F 24.3 °F 28.4 °F 93% 29.95 in 1.5 mi NW 5.8 mph - N/A   Partly Cloudy
1:50 AM 28.4 °F 23.3 °F 28.4 °F 100% 29.95 in 1.1 mi NW 4.6 mph - N/A   Mostly Cloudy
2:50 AM 29 °F - 28 °F 93% 30.00 in 2 mi NW 3.5 mph - -   Light Haze
2:50 AM 30.2 °F 26.7 °F 28.4 °F 93% 29.98 in 1.7 mi NW 3.5 mph - N/A   Mostly Cloudy
3:50 AM 28.4 °F 23.3 °F 26.6 °F 93% 29.98 in 0.1 mi WNW 4.6 mph - N/A Fog Fog
4:50 AM 28.4 °F 23.3 °F 26.6 °F 93% 29.95 in 0.1 mi NW 4.6 mph - N/A Fog Fog
5:50 AM 26 °F - 25 °F 93% 30.01 in 0 mi WNW 2.3 mph - - Fog Fog
5:50 AM 26.6 °F - 24.8 °F 93% 29.98 in 0.1 mi WNW 2.3 mph - N/A Fog Fog
6:50 AM 26.6 °F 22.6 °F 24.8 °F 93% 29.98 in 0.1 mi NW 3.5 mph - N/A Fog Fog
7:50 AM 24.8 °F 19.1 °F 23.0 °F 93% 29.98 in 0.3 mi WSW 4.6 mph - N/A Fog Light Freezing Fog
8:50 AM 29 °F - 29 °F 98% 30.01 in 0 mi WSW 3.5 mph - - Fog Fog
8:50 AM 28.4 °F 24.6 °F 28.4 °F 100% 29.98 in 0.4 mi WSW 3.5 mph - N/A Fog Light Freezing Fog
9:28 AM 30.2 °F 25.4 °F 30.2 °F 100% 29.98 in 2.5 mi West 4.6 mph - N/A Fog Scattered Clouds
9:50 AM 32.0 °F 25.6 °F 30.2 °F 93% 29.98 in 6.2 mi WSW 6.9 mph - N/A Fog Mostly Cloudy
10:50 AM 35.6 °F 31.7 °F 33.8 °F 93% 29.98 in 6.2 mi SW 4.6 mph - N/A Fog Mostly Cloudy
11:20 AM 35.6 °F 32.8 °F 33.8 °F 93% 29.98 in 6.2 mi SW 3.5 mph - N/A   Mostly Cloudy
11:50 AM 38 °F - 37 °F 93% 30.00 in 7 mi West 8.1 mph - -   Partly Cloudy
11:50 AM 39.2 °F 33.6 °F 37.4 °F 93% 29.98 in 6.2 mi West 8.1 mph - N/A   Scattered Clouds
12:50 PM 41.0 °F 35.2 °F 37.4 °F 87% 29.95 in 6.2 mi West 9.2 mph - N/A   Scattered Clouds
1:50 PM 44.6 °F 38.1 °F 37.4 °F 76% 29.95 in 6.2 mi WNW 13.8 mph - N/A   Mostly Cloudy
2:50 PM 44 °F - 37 °F 68% 29.97 in 9 mi WNW 13.8 mph - - Rain Light Rain Showers
2:50 PM 42.8 °F 35.8 °F 37.4 °F 81% 29.95 in 6.2 mi WNW 13.8 mph - N/A Rain Light Rain Showers
3:50 PM 41.0 °F 35.2 °F 33.8 °F 76% 29.95 in 6.2 mi NW 9.2 mph - N/A   Mostly Cloudy
4:50 PM 37.4 °F 32.1 °F 33.8 °F 87% 29.98 in 6.2 mi NW 6.9 mph - N/A   Scattered Clouds
5:50 PM 36 °F - 33 °F 86% 30.01 in 28 mi WNW 6.9 mph - -   Scattered Clouds
5:50 PM 37.4 °F 32.1 °F 33.8 °F 87% 29.98 in 6.2 mi WNW 6.9 mph - N/A   Partly Cloudy
6:50 PM 33.8 °F 28.6 °F 32.0 °F 93% 29.98 in 6.2 mi WNW 5.8 mph - N/A   Partly Cloudy
7:50 PM 32.0 °F 26.4 °F 30.2 °F 93% 29.98 in 6.2 mi WNW 5.8 mph - N/A   Partly Cloudy
8:50 PM 31 °F - 29 °F 90% 30.03 in 25 mi WNW 5.8 mph - -   Scattered Clouds
8:50 PM 32.0 °F 26.4 °F 28.4 °F 87% 30.01 in 6.2 mi WNW 5.8 mph - N/A   Partly Cloudy
9:50 PM 32.0 °F 27.5 °F 28.4 °F 87% 30.01 in 6.2 mi WNW 4.6 mph - N/A   Unknown
10:50 PM 30.2 °F 23.4 °F 28.4 °F 93% 30.01 in 6.2 mi WNW 6.9 mph - N/A   Unknown
11:50 PM 30 °F - 28 °F 89% 30.06 in 17 mi WNW 6.9 mph - -  
11:50 PM 30.2 °F 23.4 °F 28.4 °F 93% 30.01 in 6.2 mi WNW 6.9 mph - N/A   Unknown